Location: Chamerau
(49.1969°N, 12.7525°E)
Time: 05:14:13
(UTC+00:00)

Abrixas rocket - Pass Details

Date: 18 September 2020
Orbit: 329 x 336 km, 48.4° (Epoch: 22 October)

Event Time Altitude Azimuth Distance (km) Brightness Sun altitude
Rises 18:00:55 0° 249° (WSW) 2,094 6.9 -8.3°
Reaches altitude 10° 18:02:56 10° 244° (WSW) 1,258 5.5 -8.6°
Maximum altitude 18:05:41 54° 166° (SSE) 408 2.0 -9.0°
Enters shadow 18:07:53 14° 90° (E) 1,040 3.6 -9.4°
